Hourly Data Report for February 07, 2005

TORONTO CITY
ONTARIO

43°40'00.000" N
79°24'00.000" W
112.50 m
6158355
71508
XTO

Download Data

Hourly Data (February 2005)
Hourly Data Report for February 7, 2005
TIME
LST
Temp Definition
°C
Dew Point Definition
°C
Rel Hum Definition
%
Precip. Amount Definition
mm

Wind Dir Definition
10's deg

Wind Spd Definition
km/h
Visibility Definition
km
Stn Press Definition
kPa
Hmdx Definition


Wind Chill Definition


Weather Definition


00:00 2.6 1.2 90   LegendMM LegendMM   101.24     LegendNANA
01:00 2.8 0.8 87   LegendMM LegendMM   101.17     LegendNANA
02:00 2.4 0.5 87   LegendMM LegendMM   101.20     LegendNANA
03:00 1.5 0.4 92   LegendMM LegendMM   101.18     LegendNANA
04:00 1.9 0.8 92   LegendMM LegendMM   101.16     LegendNANA
05:00 2.4 0.4 87   LegendMM LegendMM   101.10     LegendNANA
06:00 2.7 0.2 84   LegendMM LegendMM   101.07     LegendNANA
07:00 2.9 -0.2 80   LegendMM LegendMM   101.10     LegendNANA
08:00 3.3 -0.2 78   LegendMM LegendMM   101.09     LegendNANA
09:00 3.7 1.2 84   LegendMM LegendMM   101.05     LegendNANA
10:00 4.8 1.7 80   LegendMM LegendMM   101.01     LegendNANA
11:00 4.8 0.8 75   LegendMM LegendMM   100.90     LegendNANA
12:00 5.8 0.4 68   LegendMM LegendMM   100.89     LegendNANA
13:00 6.8 -0.1 61   LegendMM LegendMM   100.87     LegendNANA
14:00 5.6 2.0 78   LegendMM LegendMM   100.72     LegendNANA
15:00 4.8 1.5 79   LegendMM LegendMM   100.69     LegendNANA
16:00 4.5 0.4 75   LegendMM LegendMM   100.60     LegendNANA
17:00 4.2 0.6 77   LegendMM LegendMM   100.59     LegendNANA
18:00 4.7 0.5 74   LegendMM LegendMM   100.53     LegendNANA
19:00 4.8 1.2 77   LegendMM LegendMM   100.53     LegendNANA
20:00 4.5 1.8 83   LegendMM LegendMM   100.49     LegendNANA
21:00 4.3 2.7 89   LegendMM LegendMM   100.45     LegendNANA
22:00 4.3 3.5 95   LegendMM LegendMM   100.43     LegendNANA
23:00 4.4 3.9 97   LegendMM LegendMM   100.35     LegendNANA

Notes on Data Quality.

Legend

  • E = Estimated
  • M = Missing
  • NA = Not Available*
  • [empty] = Indicates an unobserved value
Date modified: